Regional Weather Roundup
Issued by NWS

Home | Current Version | Previous Version | Text Only | Print | Product List | Glossary On
Versions: 1 2 3 4 5 6 7 8 9 10 11 12 13 14 15 16 17 18 19 20 21 22 23 24 25 26 27 28 29 30 31 32 33 34 35 36 37 38 39 40 41 42 43 44 45 46 47 48 49 50
032
ASUS43 KDTX 070810
RWRMI
MICHIGAN HOURLY REGIONAL WEATHER ROUNDUP
NATIONAL WEATHER SERVICE DETROIT/PONTIAC MI
300 AM EST WED DEC 07 2016

NOTE: "FAIR" INDICATES FEW OR NO CLOUDS BELOW 12,000 FEET WITH NO
SIGNIFICANT WEATHER AND/OR OBSTRUCTION TO VISIBILITY.

MIZ047>049-052>055-059>063-066>070-074>076-081>083-070900-
SOUTHEAST LOWER MICHIGAN

CITY           SKY/WX    TMP DP  RH WIND       PRES   REMARKS
ADRIAN         MOCLDY    31  25  78 W10       29.96R WCI  22
ALMA           CLOUDY    31  24  73 W13G21    29.88R WCI  22
ANN ARBOR      MOCLDY    31  25  78 SW12      29.92R WCI  22
BAD AXE        CLOUDY    33  27  78 W16G24    29.82R WCI  22
CARO           CLEAR     32  24  71 W15G21    29.84R WCI  22
DETROIT CITY   PTCLDY    34  26  72 W10       29.91R WCI  26
DETROIT        MOCLDY    33  25  72 W12       29.94R WCI  24
FLINT          CLOUDY    32  23  69 W15G21    29.89R WCI  22
GROSSE ILE     CLOUDY    33  27  79 W13       29.93R WCI  24
HILLSDALE      CLOUDY    30  23  74 W13G21    29.92R WCI  20
HOWELL         CLOUDY    32  23  69 W16G22    29.90R WCI  21

CITY           SKY/WX    TMP DP  RH WIND       PRES   REMARKS
JACKSON        CLOUDY    31  22  69 W13G20    29.92R WCI  21
LAMBERTVILLE   CLEAR     33  27  79 W7        29.96R WCI  27
LANSING        CLOUDY    32  22  66 W18       29.91R WCI  20
LAPEER         NOT AVBL
MASON          CLOUDY    32  23  69 W18G25    29.91R WCI  20
MONROE         CLOUDY    33  29  86 SW12      29.94R WCI  24
MT. CLEMENS    CLEAR     34  24  69 W10       29.88R WCI  26
PONTIAC        CLOUDY    32  24  72 W9        29.88R WCI  24
PORT HOPE        N/A     34  24  67 W10G18    29.78R WCI  26
PORT HURON     CLEAR     32  27  80 W6        29.87R WCI  26
TRI CITIES     CLOUDY    31  22  69 W22G30    29.86R WCI  18
MIDLAND        CLOUDY    32  21  63 SW12      29.85R WCI  23
TROY           CLEAR     33  25  71 W9        29.91R WCI  26
SAGINAW HB     CLOUDY    32  23  69 W18G25    29.86R WCI  20
$$
MIZ043>046-050>051-056>058-064>065-071>073-077>080-070900-
SOUTHWEST LOWER MICHIGAN

CITY           SKY/WX    TMP DP  RH WIND       PRES   REMARKS
BATTLE CREEK   CLOUDY    31  24  75 W13       29.93R WCI  21
BENTON HARBOR  MOCLDY    32  22  66 W18       29.97R WCI  20
BIG RAPIDS     CLOUDY    31  19  62 W14G22    29.84R WCI  20
COLDWATER      CLOUDY    31  23  73 W21       29.96R WCI  18
FREMONT        CLOUDY    31  18  58 W18G24    29.87R WCI  19
HOLLAND        CLOUDY    33  24  69 W16G28    29.92R WCI  23
GRAND RAPIDS   CLOUDY    31  22  69 W14       29.91R WCI  21
IONIA          CLOUDY    31  24  73 W15G21    29.89R WCI  20
KALAMAZOO      CLOUDY    32  22  66 SW13      29.94R WCI  22
LUDINGTON      CLOUDY    30  22  71 W13G24    29.86R WCI  20
MARSHALL       CLOUDY    31  23  72 W14G23    29.93R WCI  21
MOUNT PLEASANT CLOUDY    30  21  68 W17G23    29.86R WCI  18
MUSKEGON       CLOUDY    33  22  63 W16G22    29.91R WCI  23
SOUTH HAVEN    CLOUDY    32  24  73 W15G23    29.96R WCI  22
$$
MIZ016>042-070900-
NORTHERN LOWER MICHIGAN

CITY           SKY/WX    TMP DP  RH WIND       PRES   REMARKS
ALPENA         CLOUDY    33  22  63 W12G20    29.75R WCI  24
BEAVER ISLAND  CLOUDY    30  22  73 W24G35    29.72R WCI  16
BELLAIRE       CLOUDY    31  22  67 SW9G29    29.79R WCI  23
CADILLAC       CLOUDY    27  19  73 W16G24    29.78R WCI  15
CHARLEVOIX     CLOUDY    31  22  68 SW21G30   29.77R WCI  19
FRANKFORT      CLOUDY    31  23  73 W13G25    29.81R WCI  21
GAYLORD        CLOUDY    28  19  69 W20G31    29.73R WCI  15
GRAYLING       CLOUDY    29  22  74 W12G21    29.78R WCI  19
HARBOR SPRINGS CLOUDY    32  25  74 SW18G28   29.73R WCI  20
HOUGHTON LAKE  CLOUDY    28  20  71 W16G23    29.80R WCI  16
MANISTEE       CLOUDY    30  22  72 SW13G24   29.84R WCI  20
OSCODA         PTCLDY    33  21  61 MISG      29.77R
PELLSTON       CLOUDY    32  22  66 SW15G26   29.72R WCI  22
ROGERS CITY    CLOUDY    32  22  66 W15G28    29.74R WCI  22
TRAVERSE CITY  CLOUDY    31  20  63 W13G20    29.78R WCI  21
$$
MIZ007>008-015-070900-
EASTERN UPPER MICHIGAN

CITY           SKY/WX    TMP DP  RH WIND       PRES   REMARKS
KINROSS        CLOUDY    28  23  81 W13G24    29.68R WCI  17
MACKINAC ISLAN CLOUDY    31  24  75 SW25G38   29.69R WCI  18
NEWBERRY       CLOUDY    26  19  74 SW17      29.68R WCI  13
S. S. MARIE    CLOUDY    30  22  72 W17G26    29.67R WCI  18
MUNISING         N/A     27  16  63 SW7       29.68R WCI  19
$$
MIZ004>006-011>014-085-070900-
CENTRAL UPPER MICHIGAN

CITY           SKY/WX    TMP DP  RH WIND       PRES   REMARKS
MANISTIQUE     CLOUDY    27  16  62 W9G21     29.71R WCI  18
ESCANABA       CLOUDY    27  17  66 W18       29.72R WCI  14
MENOMINEE      CLOUDY    27  17  66 W13G25    29.77R WCI  16
SAWYER-GWINN   FLURRIES  24  16  71 SW13G21   29.65R WCI  12
$$
MIZ001>003-009>011-084-070900-
WESTERN UPPER MICHIGAN

CITY           SKY/WX    TMP DP  RH WIND       PRES   REMARKS
IRON MOUNTAIN  CLOUDY    23  12  62 SW16G23   29.67R WCI  10
HOUGHTON       CLOUDY    24  14  65 SW14      29.57R WCI  12
COPPER HARBOR    N/A     26  17  68 W8G18     29.59R WCI  18
IRONWOOD       FLURRIES  19  13  77 SW20G33   29.63R WCI   3
$$

ABBREVIATIONS USED IN REMARKS
   TC - TEMPERATURE IN CELSIUS
  WCI - WIND CHILL INDEX
   HX - HEAT INDEX
  VSB - VISIBILITY





USA.gov is the U.S. government's official web portal to all federal, state and local government web resources and services.